Location: Chaumontel
(49.1247°N, 2.4324°E)
Time: 01:53:25
(UTC+00:00)

IRIDIUM 103 - Pass Details

Date: 22 May 2025
Orbit: 775 x 779 km, 86.4° (Epoch: 12 June)

Event Time Altitude Azimuth Distance (km) Brightness Sun altitude
Exits shadow 00:54:56 35° 186° (S) 1,233 4.8 -18.8°
Maximum altitude 00:57:11 86° 274° (W) 788 4.3 -18.7°
Drops below altitude 10° 01:02:27 10° 3° (N) 2,342 8.0 -18.5°
Sets 01:04:48 0° 4° (N) 3,274 9.0 -18.3°
